DW8751 Weather Reports


Display with metric or nautical units.
time (UTC)temp
F
wind
direction
speed
MPH
gust
MPH
rain 1hr
in
rain 24hr
in
rain mn
in
humidity
%
barometer
mb
20260510201604 47 298 3.0 7.0 0.00 0.00 0.00 74 1013.2
20260510201104 47 304 3.0 5.0 0.00 0.00 0.00 73 1013.2
20260510200603 48 307 3.0 6.0 0.00 0.00 0.00 74 1013.2
20260510200105 48 307 3.0 6.0 0.00 0.00 0.00 73 1013.2
20260510195604 48 308 3.0 7.0 0.00 0.00 0.00 73 1013.2
20260510195104 48 298 5.0 7.0 0.00 0.00 0.00 72 1013.2
20260510194604 49 307 3.0 9.0 0.00 0.00 0.00 71 1013.2
20260510194104 49 310 3.0 6.0 0.00 0.00 0.00 70 1013.2
20260510193604 49 307 5.0 8.0 0.00 0.00 0.00 69 1013.2
20260510193104 49 315 5.0 7.0 0.00 0.00 0.00 69 1013.2
20260510192604 49 314 4.0 9.0 0.00 0.00 0.00 69 1013.2
20260510192104 49 303 5.0 8.0 0.00 0.00 0.00 68 1013.2
20260510191104 50 315 3.0 7.0 0.00 0.00 0.00 68 1013.2
20260510190604 50 337 6.0 8.0 0.00 0.00 0.00 67 1013.2
20260510190104 50 312 6.0 10.0 0.00 0.00 0.00 67 1013.2
20260510185104 50 333 3.0 10.0 0.00 0.00 0.00 67 1013.2
20260510184604 50 325 5.0 12.0 0.00 0.00 0.00 66 1013.2
20260510184104 50 345 6.0 12.0 0.00 0.00 0.00 66 1013.2
20260510183604 50 344 6.0 9.0 0.00 0.00 0.00 66 1013.2
20260510183104 50 330 6.0 10.0 0.00 0.00 0.00 67 1013.2
20260510182604 50 341 6.0 12.0 0.00 0.00 0.00 66 1013.2
20260510182104 49 324 6.0 12.0 0.00 0.00 0.00 65 1013.2
20260510181104 50 337 8.0 13.0 0.00 0.00 0.00 60 1013.2
20260510180604 50 325 6.0 10.0 0.00 0.00 0.00 62 1013.2
20260510180104 50 344 6.0 12.0 0.00 0.00 0.00 61 1013.2
20260510175604 50 329 8.0 12.0 0.00 0.00 0.00 62 1013.2
20260510175104 50 329 9.0 15.0 0.00 0.00 0.00 61 1013.2
20260510174604 50 337 6.0 13.0 0.00 0.00 0.00 60 1013.2
20260510174104 50 329 7.0 14.0 0.00 0.00 0.00 61 1013.2
20260510173104 50 334 5.0 12.0 0.00 0.00 0.00 60 1013.2
20260510172603 50 337 9.0 13.0 0.00 0.00 0.00 59 1013.2
20260510172104 50 340 7.0 14.0 0.00 0.00 0.00 59 1013.2
20260510171605 50 332 8.0 12.0 0.00 0.00 0.00 58 1013.2
20260510170604 50 353 7.0 13.0 0.00 0.00 0.00 59 1013.2
20260510170104 50 341 9.0 13.0 0.00 0.00 0.00 57 1013.2
20260510165104 51 348 9.0 13.0 0.00 0.00 0.00 57 1013.2
20260510164104 50 353 7.0 15.0 0.00 0.00 0.00 59 1013.2
20260510163604 51 339 9.0 18.0 0.00 0.00 0.00 61 1013.2
20260510162604 52 339 6.0 12.0 0.00 0.00 0.00 63 1013.2
20260510161604 51 6 9.0 17.0 0.00 0.00 0.00 60 1013.2
20260510161104 51 345 9.0 16.0 0.00 0.00 0.00 64 1013.2
20260510160604 51 329 8.0 14.0 0.00 0.00 0.00 65 1013.2
20260510160104 51 333 11.0 15.0 0.00 0.00 0.00 65 1013.2
20260510155604 51 314 7.0 12.0 0.00 0.00 0.00 66 1013.2
20260510155104 51 2 8.0 12.0 0.00 0.00 0.00 65 1013.2
20260510154604 51 353 7.0 14.0 0.00 0.00 0.00 67 1013.2
20260510153604 51 3 6.0 12.0 0.00 0.00 0.00 66 1013.2
20260510153104 51 354 6.0 12.0 0.00 0.00 0.00 67 1013.2
20260510152604 51 10 6.0 12.0 0.00 0.00 0.00 67 1013.2
20260510152104 51 352 6.0 12.0 0.00 0.00 0.00 66 1013.2
20260510151604 51 355 5.0 12.0 0.00 0.00 0.00 66 1013.2
20260510151104 51 348 9.0 13.0 0.00 0.00 0.00 67 1013.2
20260510150104 51 354 7.0 17.0 0.00 0.00 0.00 68 1013.2
20260510145604 51 341 8.0 13.0 0.00 0.00 0.00 69 1013.2
20260510145104 50 349 10.0 15.0 0.00 0.00 0.00 67 1013.2
20260510144603 51 340 8.0 14.0 0.00 0.00 0.00 68 1013.2
20260510144103 51 356 8.0 13.0 0.00 0.00 0.00 67 1013.2
20260510143104 50 3 7.0 13.0 0.00 0.00 0.00 68 1013.2
20260510142604 50 10 7.0 15.0 0.00 0.00 0.00 69 1013.2
20260510142104 51 8 9.0 13.0 0.00 0.00 0.00 68 1013.2
20260510141604 51 31 5.0 9.0 0.00 0.00 0.00 70 1013.2
20260510141104 51 350 7.0 12.0 0.00 0.00 0.00 70 1013.2
20260510140603 51 352 7.0 12.0 0.00 0.00 0.00 70 1013.2
20260510140104 50 22 5.0 10.0 0.00 0.00 0.00 71 1013.2
20260510135604 50 10 7.0 12.0 0.00 0.00 0.00 72 1013.2
20260510135104 50 334 7.0 12.0 0.00 0.00 0.00 73 1013.2
20260510134104 50 358 5.0 13.0 0.00 0.00 0.00 74 1013.2
20260510133603 50 24 5.0 12.0 0.00 0.00 0.00 75 1013.2
20260510133104 50 3 8.0 14.0 0.00 0.00 0.00 74 1013.2
20260510132603 50 348 7.0 13.0 0.00 0.00 0.00 75 1013.2
20260510132104 50 9 6.0 12.0 0.00 0.00 0.00 74 1013.2
20260510131604 50 1 7.0 12.0 0.00 0.00 0.00 74 1013.2
20260510130604 50 343 6.0 13.0 0.00 0.00 0.00 73 1013.2
20260510130105 50 23 5.0 10.0 0.00 0.00 0.00 74 1013.2
20260510125604 50 19 5.0 10.0 0.00 0.00 0.00 73 1013.2
20260510124604 50 5 6.0 12.0 0.00 0.00 0.00 73 1013.2
20260510124104 49 32 5.0 8.0 0.00 0.00 0.00 73 1013.2
20260510123604 49 20 6.0 10.0 0.00 0.00 0.00 74 1013.2
20260510123104 49 19 6.0 10.0 0.00 0.00 0.00 75 1013.2
20260510122603 49 6 6.0 10.0 0.00 0.00 0.00 75 1013.2
20260510122104 49 17 7.0 13.0 0.00 0.00 0.00 74 1013.2
20260510121604 49 352 6.0 12.0 0.00 0.00 0.00 74 1013.2
20260510121104 49 6 7.0 12.0 0.00 0.00 0.00 73 1013.2
20260510120604 49 9 5.0 12.0 0.00 0.00 0.00 74 1013.2
20260510120104 49 21 6.0 10.0 0.00 0.00 0.00 74 1013.2
20260510115604 49 14 6.0 10.0 0.00 0.00 0.00 76 1013.2
20260510115104 49 32 5.0 12.0 0.00 0.00 0.00 75 1013.2
20260510114103 49 20 6.0 12.0 0.00 0.00 0.00 75 1013.2
20260510113604 49 21 6.0 12.0 0.00 0.00 0.00 76 1013.2
20260510113104 48 18 6.0 10.0 0.00 0.00 0.00 76 1013.2
20260510112604 48 28 7.0 13.0 0.00 0.00 0.00 76 1013.2
20260510112104 48 41 7.0 10.0 0.00 0.00 0.00 77 1013.2
20260510111604 48 40 7.0 10.0 0.00 0.00 0.00 76 1013.2
20260510111104 48 21 6.0 14.0 0.00 0.00 0.00 77 1013.2
20260510110604 48 54 8.0 12.0 0.00 0.00 0.00 77 1013.2
20260510110104 48 58 6.0 12.0 0.00 0.00 0.00 76 1013.2
20260510105604 48 65 6.0 10.0 0.00 0.00 0.00 77 1013.2
20260510105104 48 27 6.0 12.0 0.00 0.00 0.00 77 1013.2
20260510104604 48 42 7.0 12.0 0.00 0.00 0.00 77 1013.2
20260510104104 48 47 5.0 9.0 0.00 0.00 0.00 77 1013.2
20260510102604 48 43 7.0 13.0 0.00 0.00 0.00 76 1013.2
20260510102104 49 56 5.0 9.0 0.00 0.00 0.00 76 1013.2
20260510101603 48 78 9.0 14.0 0.00 0.00 0.00 75 1013.2
20260510101104 48 48 5.0 12.0 0.00 0.00 0.00 77 1013.2
20260510100604 47 37 7.0 13.0 0.00 0.00 0.00 75 1013.2
20260510100105 47 50 7.0 12.0 0.00 0.00 0.00 76 1013.2
20260510095604 48 55 6.0 12.0 0.00 0.00 0.00 75 1013.2
20260510095104 48 42 6.0 12.0 0.00 0.00 0.00 76 1013.2
20260510094604 48 44 7.0 12.0 0.00 0.00 0.00 76 1013.2
20260510094104 48 67 8.0 14.0 0.00 0.00 0.00 76 1013.2
20260510093604 48 46 7.0 14.0 0.00 0.00 0.00 77 1013.2
20260510093104 47 68 7.0 12.0 0.00 0.00 0.00 77 1013.2
20260510092604 47 64 8.0 13.0 0.00 0.00 0.00 76 1013.2
20260510092104 47 36 9.0 13.0 0.00 0.00 0.00 76 1013.2
20260510091604 47 61 7.0 12.0 0.00 0.00 0.00 76 1013.2
20260510091104 47 80 7.0 15.0 0.00 0.00 0.00 78 1013.2
20260510090604 47 61 6.0 12.0 0.00 0.00 0.00 79 1013.2
20260510085604 46 57 7.0 18.0 0.00 0.00 0.00 79 1013.2
20260510085104 46 72 9.0 14.0 0.00 0.00 0.00 78 1013.2
20260510084604 47 67 7.0 13.0 0.00 0.00 0.00 78 1013.2
20260510084104 46 52 7.0 14.0 0.00 0.00 0.00 78 1013.2
20260510083604 46 71 6.0 13.0 0.00 0.00 0.00 79 1013.2
20260510083104 46 70 9.0 14.0 0.00 0.00 0.00 79 1013.2
20260510082104 46 65 7.0 14.0 0.00 0.00 0.00 79 1013.2
20260510081604 46 72 10.0 13.0 0.00 0.00 0.00 79 1013.2
20260510081105 45 72 6.0 15.0 0.00 0.00 0.00 80 1013.2
20260510080604 46 75 10.0 16.0 0.00 0.00 0.00 79 1013.2
20260510080104 45 77 9.0 15.0 0.00 0.00 0.00 80 1013.2
20260510075104 45 89 9.0 15.0 0.00 0.00 0.00 80 1013.2
20260510074603 45 81 9.0 16.0 0.00 0.00 0.00 80 1013.2
20260510074104 45 84 12.0 20.0 0.00 0.00 0.00 80 1013.2
20260510073604 44 85 12.0 20.0 0.00 0.00 0.00 80 1013.2
20260510073104 45 76 10.0 18.0 0.00 0.00 0.00 80 1013.2
20260510071604 45 79 10.0 20.0 0.00 0.00 0.00 80 1013.2
20260510070604 44 79 9.0 16.0 0.00 0.00 0.00 81 1013.2
20260510070105 44 78 12.0 17.0 0.00 0.00 0.00 81 1013.2
20260510065604 44 74 10.0 16.0 0.00 0.00 0.00 81 1013.2
20260510065104 44 75 9.0 14.0 0.00 0.00 0.00 82 1013.2
20260510064604 44 86 7.0 13.0 0.00 0.00 0.00 82 1013.2
20260510064104 44 87 8.0 13.0 0.00 0.00 0.00 82 1013.2
20260510063604 44 91 10.0 17.0 0.00 0.00 0.00 83 1013.2
20260510063104 44 84 10.0 14.0 0.00 0.00 0.00 83 1013.2
20260510062604 44 92 6.0 13.0 0.00 0.00 0.00 83 1013.2
20260510062104 44 86 8.0 14.0 0.00 0.00 0.00 83 1013.2
20260510061604 44 84 7.0 10.0 0.00 0.00 0.00 84 1013.2
20260510060604 43 82 7.0 13.0 0.00 0.00 0.00 85 1013.2
20260510060104 43 83 7.0 13.0 0.00 0.00 0.00 85 1013.2
20260510055604 43 92 9.0 13.0 0.00 0.00 0.00 85 1013.2
20260510055104 43 95 8.0 13.0 0.00 0.00 0.00 85 1013.2
20260510054604 43 95 9.0 14.0 0.00 0.00 0.00 85 1013.2
20260510054103 43 83 8.0 12.0 0.00 0.00 0.00 85 1013.2
20260510053604 43 95 7.0 12.0 0.00 0.00 0.00 85 1013.2
20260510053104 43 98 8.0 14.0 0.00 0.00 0.00 85 1013.2
20260510052604 43 89 9.0 14.0 0.00 0.00 0.00 84 1013.2
20260510052104 43 95 9.0 16.0 0.00 0.00 0.00 84 1013.2
20260510051104 43 86 10.0 16.0 0.00 0.00 0.00 84 1013.2
20260510050605 43 91 10.0 15.0 0.00 0.00 0.00 84 1013.2
20260510050103 43 88 11.0 15.0 0.00 0.00 0.00 84 1013.2
20260510045604 43 84 10.0 15.0 0.00 0.00 0.00 84 1013.2
20260510045104 43 87 9.0 14.0 0.00 0.00 0.00 84 1013.2
20260510044604 44 92 9.0 16.0 0.00 0.00 0.00 84 1013.2
20260510044104 44 92 12.0 17.0 0.00 0.00 0.00 83 1013.2
20260510043104 44 97 10.0 15.0 0.00 0.00 0.00 84 1013.2
20260510042603 44 96 10.0 17.0 0.00 0.00 0.00 84 1013.2
20260510042104 44 92 9.0 15.0 0.00 0.00 0.00 84 1013.2
20260510041604 44 92 9.0 18.0 0.00 0.00 0.00 83 1013.2
20260510041104 44 93 10.0 17.0 0.00 0.00 0.00 84 1013.2
20260510040104 44 84 10.0 17.0 0.00 0.00 0.00 84 1013.2
20260510035604 44 89 8.0 14.0 0.00 0.00 0.00 84 1013.2
20260510035104 44 89 10.0 18.0 0.00 0.00 0.00 84 1013.2
20260510034604 44 101 8.0 15.0 0.00 0.00 0.00 86 1013.2
20260510034104 44 93 7.0 15.0 0.00 0.00 0.00 87 1013.2
20260510033105 44 92 6.0 9.0 0.00 0.00 0.00 87 1013.2
20260510032604 44 97 6.0 9.0 0.00 0.01 0.00 88 1013.2
20260510032104 44 95 6.0 9.0 0.00 0.01 0.00 88 1013.2
20260510031604 44 93 6.0 8.0 0.00 0.01 0.00 88 1013.2
20260510031104 44 81 6.0 9.0 0.00 0.01 0.00 87 1013.2
20260510030604 44 88 5.0 12.0 0.00 0.01 0.00 87 1013.2
20260510030104 44 91 6.0 9.0 0.00 0.01 0.00 87 1013.2
20260510025604 45 92 4.0 8.0 0.00 0.01 0.00 87 1013.2
20260510025104 45 99 5.0 8.0 0.00 0.01 0.00 87 1013.2
20260510024604 45 106 6.0 12.0 0.00 0.01 0.00 87 1013.2
20260510024104 45 92 6.0 10.0 0.00 0.01 0.00 86 1013.2
20260510023604 45 90 5.0 9.0 0.00 0.01 0.00 86 1013.2
20260510023104 45 94 6.0 12.0 0.00 0.01 0.00 85 1013.2
20260510022604 45 79 9.0 16.0 0.00 0.01 0.00 85 1013.2
20260510022104 45 89 8.0 13.0 0.00 0.01 0.00 85 1013.2
20260510021604 45 80 7.0 14.0 0.00 0.01 0.00 85 1013.2
20260510021104 45 80 9.0 15.0 0.00 0.01 0.00 86 1013.2
20260510020604 46 65 6.0 12.0 0.00 0.01 0.00 86 1013.2
20260510020104 46 81 7.0 13.0 0.00 0.01 0.00 86 1013.2
20260510015604 46 67 6.0 10.0 0.00 0.01 0.00 86 1013.2
20260510015104 46 86 7.0 12.0 0.00 0.01 0.00 87 1013.2
20260510014604 45 96 8.0 14.0 0.00 0.01 0.00 87 1013.2
20260510014104 45 101 6.0 12.0 0.00 0.01 0.00 87 1013.2
20260510013104 45 98 5.0 8.0 0.00 0.01 0.00 87 1013.2
20260510012604 45 94 5.0 8.0 0.00 0.01 0.00 87 1013.2
20260510011604 45 90 5.0 10.0 0.00 0.01 0.00 87 1013.2
20260510011104 45 88 5.0 8.0 0.00 0.01 0.00 87 1013.2
20260510010604 45 91 6.0 9.0 0.00 0.01 0.00 87 1013.2
20260510010104 45 95 7.0 10.0 0.00 0.01 0.00 87 1013.2
20260510005604 45 91 6.0 8.0 0.00 0.01 0.00 87 1013.2
20260510004604 45 94 5.0 13.0 0.00 0.02 0.00 87 1013.2
20260510003604 45 83 5.0 9.0 0.00 0.05 0.00 86 1013.2
20260510003104 45 86 6.0 12.0 0.00 0.05 0.00 86 1013.2
20260510002604 45 88 6.0 9.0 0.00 0.05 0.00 86 1013.2
20260510002104 45 83 6.0 12.0 0.00 0.05 0.00 86 1013.2
20260510001604 45 88 6.0 9.0 0.00 0.05 0.00 86 1013.2
20260510001104 46 83 5.0 12.0 0.00 0.05 0.00 86 1013.2
20260509235104 46 88 6.0 12.0 0.00 0.05 0.00 86 1013.2
20260509234604 46 83 7.0 10.0 0.00 0.05 0.00 86 1013.2
20260509234104 46 85 7.0 13.0 0.00 0.05 0.00 85 1013.2
20260509233604 46 87 10.0 15.0 0.00 0.05 0.00 85 1013.2
20260509233103 46 85 9.0 14.0 0.00 0.05 0.00 85 1013.2
20260509231605 46 87 10.0 15.0 0.00 0.05 0.00 85 1013.2
20260509230604 46 92 9.0 14.0 0.00 0.05 0.00 86 1013.2
20260509230104 46 85 9.0 15.0 0.00 0.05 0.00 86 1013.2
20260509225604 46 81 11.0 16.0 0.00 0.05 0.05 86 1013.2
20260509225104 46 74 10.0 18.0 0.00 0.05 0.05 86 1013.2
20260509224604 46 80 10.0 17.0 0.00 0.05 0.05 86 1013.2
20260509224104 46 84 12.0 17.0 0.00 0.05 0.05 85 1013.2
20260509223104 47 72 13.0 20.0 0.00 0.05 0.05 86 1013.2
20260509222604 47 84 10.0 16.0 0.00 0.05 0.05 87 1013.2
20260509222104 47 75 10.0 18.0 0.00 0.05 0.05 87 1013.2
20260509221604 47 76 10.0 20.0 0.00 0.05 0.05 87 1013.2
20260509221103 47 86 12.0 22.0 0.00 0.05 0.05 86 1013.2
20260509215604 47 82 13.0 18.0 0.00 0.05 0.05 86 1013.2
20260509214604 47 68 11.0 24.0 0.00 0.05 0.05 85 1013.2
20260509214104 47 75 13.0 20.0 0.00 0.05 0.05 86 1013.2
20260509213604 47 76 9.0 20.0 0.00 0.05 0.05 85 1013.2
20260509213104 47 75 9.0 16.0 0.00 0.05 0.05 85 1013.2
20260509212603 48 68 10.0 17.0 0.00 0.05 0.05 85 1013.2
20260509212104 48 67 8.0 17.0 0.00 0.05 0.05 85 1013.2
20260509211604 48 77 10.0 16.0 0.00 0.05 0.05 86 1013.2
20260509211104 48 71 10.0 18.0 0.00 0.05 0.05 86 1013.2
20260509210604 48 70 9.0 18.0 0.00 0.05 0.05 86 1013.2
20260509210104 48 75 9.0 18.0 0.00 0.05 0.05 85 1013.2
20260509205604 48 72 10.0 20.0 0.00 0.05 0.05 85 1013.2
20260509205104 49 70 10.0 20.0 0.00 0.05 0.05 85 1013.2
20260509204604 49 59 10.0 17.0 0.00 0.05 0.05 85 1013.2
20260509204104 49 68 13.0 21.0 0.00 0.05 0.05 85 1013.2
20260509203604 49 72 8.0 16.0 0.00 0.05 0.05 87 1013.2
20260509203104 50 62 9.0 18.0 0.00 0.05 0.05 86 1013.2
20260509202604 50 73 8.0 17.0 0.00 0.05 0.05 87 1013.2
20260509202104 50 77 7.0 17.0 0.00 0.05 0.05 87 1013.2